Location: La Tine
(46.4708°N, 7.0525°E)
Time: 15:59:21
(UTC+00:00)

CENTAUR R/B - Pass Details

Date: 18 September 2020
Orbit: 753 x 1435 km, 63.5° (Epoch: 26 October)

Event Time Altitude Azimuth Distance (km) Brightness Sun altitude
Rises 19:23:45 0° 320° (NW) 4,079 6.9 -18.7°
Reaches altitude 10° 19:26:25 10° 324° (NW) 3,201 6.1 -19.1°
Maximum altitude 19:34:17 62° 45° (NE) 1,499 3.3 -20.4°
Enters shadow 19:38:32 33° 113° (ESE) 2,194 3.7 -21.0°
